Location: Newark
(39.0622°N, 106.5590°E)
Time: 17:22:00
(UTC+00:00)

Tiros 1 despin weight - All Passes

Search period start: 26 January 2020 00:00
Search period end: 05 February 2020 00:00
Orbit: 594 x 642 km, 48.2° (Epoch: 25 January)

Date Brightness Start Highest point End Pass type
(mag) Time Alt. Az. Time Alt. Az. Time Alt. Az.
26 Jan - 01:49:45 10° SE 01:51:00 11° SE 01:52:16 10° ESE daylight
26 Jan - 03:27:25 10° SW 03:31:51 67° SE 03:36:23 10° ENE daylight
26 Jan - 05:09:28 10° W 05:13:40 36° NNW 05:17:56 10° NE daylight
26 Jan - 06:52:16 10° NW 06:56:08 26° N 07:00:02 10° ENE daylight
26 Jan - 08:34:03 10° NW 08:38:31 45° NNE 08:43:00 10° E daylight
26 Jan - 10:15:40 10° WNW 10:20:08 46° SW 10:24:36 10° SSE daylight
27 Jan - 02:03:39 10° S 02:07:11 23° SE 02:10:45 10° E daylight
27 Jan - 03:43:56 10° WSW 03:48:24 70° NNW 03:52:58 10° NE daylight
27 Jan - 05:26:35 10° WNW 05:30:32 28° N 05:34:33 10° NE daylight
27 Jan - 07:09:03 10° NW 07:13:04 29° N 07:17:07 10° ENE daylight
27 Jan - 08:50:34 10° NW 08:55:11 71° NNE 08:59:52 10° ESE daylight
27 Jan - 10:32:43 10° W 10:36:27 24° SW 10:40:12 10° S visible
28 Jan - 02:19:15 10° SSW 02:23:30 45° SE 02:27:49 10° ENE daylight
28 Jan - 04:00:47 10° W 04:05:05 44° NNW 04:09:28 10° NE daylight
28 Jan - 05:43:39 10° WNW 05:47:28 26° N 05:51:20 10° NE daylight
28 Jan - 07:25:39 10° NW 07:29:56 36° NNE 07:34:15 10° E daylight
28 Jan - 09:07:08 10° WNW 09:11:44 67° SW 09:16:23 10° SE daylight
28 Jan - 10:50:59 10° WSW 10:52:39 12° SW 10:54:20 10° SSW visible
29 Jan - 00:56:23 10° SSE 00:58:57 15° SE 01:01:34 10° E daylight
29 Jan - 02:35:30 10° SW 02:39:57 86° SSE 02:44:31 10° ENE daylight
29 Jan - 04:17:51 10° WNW 04:21:54 32° NNW 04:26:02 10° NE daylight
29 Jan - 06:00:32 10° NW 06:04:25 26° N 06:08:20 10° ENE daylight
29 Jan - 07:42:09 10° NW 07:46:41 53° NNE 07:51:15 10° ESE daylight
29 Jan - 09:23:56 10° WNW 09:28:10 35° SW 09:32:23 10° SSE daylight
30 Jan - 01:11:18 10° SSW 01:15:11 30° SE 01:19:08 10° ENE daylight
30 Jan - 02:52:11 10° WSW 02:56:34 56° NNW 03:01:03 10° NE daylight
30 Jan - 04:34:57 10° WNW 04:38:48 27° N 04:42:42 10° NE daylight
30 Jan - 06:17:13 10° NW 06:21:19 31° NNE 06:25:27 10° ENE daylight
30 Jan - 07:58:41 10° WNW 08:03:19 88° NE 08:07:59 10° ESE daylight
30 Jan - 09:41:17 10° W 09:44:26 18° SW 09:47:34 10° S daylight
31 Jan - 01:27:13 10° SW 01:31:34 60° SE 01:36:00 10° ENE daylight
31 Jan - 03:09:08 10° W 03:13:19 37° NNW 03:17:33 10° NE daylight
31 Jan - 04:51:57 10° NW 04:55:45 25° N 04:59:35 10° ENE daylight
31 Jan - 06:33:46 10° NW 06:38:08 42° NNE 06:42:32 10° E daylight
31 Jan - 08:15:20 10° WNW 08:19:48 51° SW 08:24:18 10° SE daylight
01 Feb - 00:03:39 10° S 00:06:56 20° SE 00:10:15 10° E daylight
01 Feb - 01:43:39 10° WSW 01:48:05 76° NNW 01:52:36 10° NE daylight
01 Feb - 03:26:14 10° WNW 03:30:09 29° N 03:34:08 10° NE daylight
01 Feb - 05:08:45 10° NW 05:12:40 28° N 05:16:38 10° ENE daylight
01 Feb - 06:50:16 10° NW 06:54:50 65° NNE 06:59:27 10° ESE daylight
01 Feb - 08:32:18 10° W 08:36:09 26° SW 08:40:02 10° SSE daylight
02 Feb - 00:19:06 10° SSW 00:23:13 40° SE 00:27:25 10° ENE daylight
02 Feb - 02:00:28 10° W 02:04:45 46° NNW 02:09:07 10° NE daylight
02 Feb - 03:43:19 10° WNW 03:47:05 25° N 03:50:54 10° NE daylight
02 Feb - 05:25:23 10° NW 05:29:33 34° NNE 05:33:46 10° E daylight
02 Feb - 07:06:49 10° WNW 07:11:24 73° SW 07:16:02 10° SE daylight
02 Feb - 08:50:12 10° WSW 08:52:23 13° SW 08:54:33 10° SSW daylight
02 Feb - 22:56:35 10° SSE 22:58:43 13° SE 23:00:52 10° E visible
03 Feb - 00:35:15 10° SW 00:39:40 78° SE 00:44:09 10° ENE daylight
03 Feb - 02:17:30 10° W 02:21:32 33° NNW 02:25:39 10° NE daylight
03 Feb - 04:00:13 10° NW 04:04:01 26° N 04:07:52 10° ENE daylight
03 Feb - 05:41:53 10° NW 05:46:19 49° NNE 05:50:48 10° E daylight
03 Feb - 07:23:35 10° WNW 07:27:51 38° SW 07:32:08 10° SSE daylight
03 Feb - 23:11:13 10° SSW 23:14:56 27° SE 23:18:42 10° ENE visible
04 Feb - 00:51:53 10° WSW 00:56:15 60° NNW 01:00:41 10° NE daylight
04 Feb - 02:34:37 10° WNW 02:38:26 27° N 02:42:17 10° NE daylight
04 Feb - 04:16:57 10° NW 04:20:56 30° NNE 04:24:58 10° ENE daylight
04 Feb - 05:58:24 10° WNW 06:02:58 81° NNE 06:07:36 10° ESE daylight
04 Feb - 07:40:48 10° W 07:44:08 20° SW 07:47:29 10° S daylight
04 Feb - 23:27:00 10° SW 23:31:17 54° SE 23:35:39 10° ENE visible
